IDEASSat
1 47458U 21006AX 21063.43278228 .00001342 00000-0 80424-4 0 9997
2 47458 97.5075 126.4983 0013218 101.9093 258.3621 15.12609343 6179
